Tracking 29892 objects as of 21-Nov-2024
HD Live streaming from Space Station
objects crossing your sky now

STARLINK-11165

Track STARLINK-11165 now!
10-day predictions
STARLINK-11165 is classified as:


NORAD ID: 60063
Int'l Code: 2024-113E
Perigee: 366.1 km
Apogee: 367.6 km
Inclination: 53.2 °
Period: 91.7 minutes
Semi major axis: 6737 km
RCS: Unknown
Launch date: June 19, 2024
Source: United States (US)
Launch site: AIR FORCE WESTERN TEST RANGE (AFWTR)
Your satellite tracking list
Your tracking list is empty




NASA's NSSDC Master Catalog

Two Line Element Set (TLE):
1 60063U 24113E   24324.40538403  .00015666  00000-0  13386-3 0  9996
2 60063  53.1564  14.1018 0001142 106.4634 253.6509 15.69721613 24915
Source of the keplerian elements: AFSPC